SWA105 KSLC-KDEN

Flight info

Callsign SWA105
Flight time N/A
Altitude 39000
Route RUGGD3 PERTY KAMPR LONGZ4
Aircraft B738/M-SADE2E3GIJ4RWZ/LB1D1

Departure

Time 2026-05-08 07:42
Airport Salt Lake City International Airport (KSLC)

Arrival

Time N/A
Airport Denver International Airport (KDEN)
Time Latitude Longitude Altitude Speed Heading
2026-05-08 07:16 40.78661 -111.97863 4232 ft 0 kts 205°
2026-05-08 07:28 40.78666 -111.97860 4231 ft 3 kts 205°
2026-05-08 07:29 40.78679 -111.97845 4230 ft 3 kts 263°
2026-05-08 07:29 40.78678 -111.97829 4232 ft 0 kts 297°
2026-05-08 07:33 40.78681 -111.97830 4232 ft 1 kts 325°
2026-05-08 07:33 40.78687 -111.97827 4232 ft 1 kts 12°
2026-05-08 07:33 40.78701 -111.97811 4234 ft 7 kts 39°
2026-05-08 07:33 40.78749 -111.97749 4234 ft 11 kts 63°
2026-05-08 07:34 40.78783 -111.97691 4234 ft 5 kts 21°
2026-05-08 07:34 40.78813 -111.97688 4233 ft 6 kts 355°
2026-05-08 07:34 40.78879 -111.97694 4235 ft 12 kts 355°
2026-05-08 07:34 40.78939 -111.97707 4236 ft 4 kts 352°
2026-05-08 07:35 40.78969 -111.97710 4236 ft 6 kts 356°
2026-05-08 07:35 40.79014 -111.97716 4236 ft 8 kts 355°
2026-05-08 07:35 40.79073 -111.97726 4234 ft 9 kts 350°
2026-05-08 07:35 40.79141 -111.97740 4232 ft 10 kts 351°
2026-05-08 07:36 40.79184 -111.97769 4231 ft 7 kts 317°
2026-05-08 07:36 40.79229 -111.97814 4231 ft 10 kts 330°
2026-05-08 07:36 40.79301 -111.97840 4229 ft 12 kts 354°
2026-05-08 07:36 40.79389 -111.97851 4228 ft 14 kts 355°
2026-05-08 07:37 40.79483 -111.97862 4228 ft 13 kts 354°
2026-05-08 07:37 40.79572 -111.97873 4228 ft 13 kts 354°
2026-05-08 07:37 40.79639 -111.97881 4228 ft 0 kts 355°
2026-05-08 07:37 40.79645 -111.97882 4228 ft 2 kts 356°
2026-05-08 07:38 40.79658 -111.97872 4228 ft 4 kts 42°
2026-05-08 07:38 40.79689 -111.97817 4228 ft 10 kts 44°
2026-05-08 07:38 40.79762 -111.97798 4229 ft 12 kts 356°
2026-05-08 07:38 40.79850 -111.97808 4231 ft 14 kts 355°
2026-05-08 07:39 40.79950 -111.97819 4234 ft 15 kts 355°
2026-05-08 07:39 40.80056 -111.97832 4236 ft 16 kts 355°
2026-05-08 07:39 40.80168 -111.97845 4237 ft 17 kts 355°
2026-05-08 07:39 40.80287 -111.97859 4238 ft 18 kts 355°
2026-05-08 07:40 40.80417 -111.97874 4236 ft 20 kts 355°
2026-05-08 07:40 40.80564 -111.97891 4234 ft 21 kts 355°
2026-05-08 07:40 40.80704 -111.97892 4232 ft 18 kts 19°
2026-05-08 07:40 40.80745 -111.97799 4230 ft 12 kts 92°
2026-05-08 07:41 40.80705 -111.97703 4229 ft 13 kts 139°
2026-05-08 07:41 40.80629 -111.97691 4232 ft 18 kts 189°
2026-05-08 07:41 40.80284 -111.97647 4235 ft 86 kts 173°
2026-05-08 07:41 40.79464 -111.97549 4235 ft 147 kts 175°
2026-05-08 07:42 40.78305 -111.97387 4361 ft 190 kts 169°
2026-05-08 07:42 40.77275 -111.96148 4618 ft 220 kts 114°
2026-05-08 07:42 40.77178 -111.94082 5040 ft 240 kts 73°
2026-05-08 07:42 40.78170 -111.92291 5467 ft 253 kts 34°
2026-05-08 07:43 40.79858 -111.91637 5865 ft 259 kts 356°
2026-05-08 07:43 40.81510 -111.92451 6249 ft 261 kts 320°
2026-05-08 07:43 40.82796 -111.94207 6627 ft 266 kts 309°
2026-05-08 07:43 40.83933 -111.96140 6992 ft 268 kts 306°
2026-05-08 07:44 40.85100 -111.98066 7371 ft 269 kts 320°
2026-05-08 07:44 40.86748 -111.99234 7823 ft 272 kts 333°
2026-05-08 07:44 40.88561 -111.99848 8411 ft 281 kts 359°
2026-05-08 07:44 40.90548 -111.99706 8882 ft 291 kts
2026-05-08 07:45 40.92575 -111.99590 8956 ft 291 kts 358°
2026-05-08 07:45 40.94582 -111.99840 8981 ft 289 kts 351°
2026-05-08 07:45 40.96576 -112.00288 9243 ft 291 kts 351°
2026-05-08 07:45 40.98586 -112.00662 10024 ft 293 kts 353°
2026-05-08 07:46 41.00640 -112.00971 10623 ft 302 kts 353°
2026-05-08 07:46 41.02784 -112.01021 11023 ft 317 kts 11°
2026-05-08 07:46 41.04838 -111.99832 11333 ft 334 kts 38°
2026-05-08 07:46 41.06353 -111.97416 11596 ft 352 kts 60°
2026-05-08 07:47 41.07473 -111.94447 11836 ft 368 kts 66°
2026-05-08 07:47 41.08481 -111.91274 12266 ft 378 kts 67°
2026-05-08 07:47 41.09559 -111.88056 12744 ft 385 kts 65°
2026-05-08 07:47 41.10735 -111.84823 13222 ft 392 kts 64°
2026-05-08 07:48 41.11793 -111.81482 13711 ft 396 kts 75°
2026-05-08 07:48 41.12076 -111.77854 14276 ft 399 kts 93°
2026-05-08 07:48 41.11495 -111.74261 14836 ft 402 kts 111°
2026-05-08 07:48 41.10091 -111.71055 15390 ft 404 kts 127°
2026-05-08 07:49 41.08357 -111.68156 15896 ft 407 kts 130°
2026-05-08 07:49 41.06527 -111.65272 16393 ft 411 kts 130°
2026-05-08 07:49 41.04696 -111.62348 16882 ft 414 kts 129°
2026-05-08 07:49 41.02885 -111.59361 17377 ft 417 kts 129°
2026-05-08 07:50 41.01062 -111.56363 17829 ft 420 kts 129°
2026-05-08 07:50 40.99202 -111.53358 18271 ft 423 kts 129°
2026-05-08 07:50 40.97332 -111.50347 18725 ft 425 kts 129°
2026-05-08 07:50 40.95452 -111.47299 19154 ft 428 kts 129°
2026-05-08 07:51 40.93566 -111.44233 19562 ft 431 kts 129°
2026-05-08 07:51 40.91820 -111.41006 19981 ft 433 kts 118°
2026-05-08 07:51 40.90699 -111.37297 20406 ft 436 kts 104°
2026-05-08 07:51 40.90141 -111.33348 20798 ft 439 kts 99°
2026-05-08 07:52 40.89682 -111.29353 21156 ft 441 kts 98°
2026-05-08 07:52 40.89234 -111.25322 21529 ft 444 kts 98°
2026-05-08 07:52 40.88761 -111.21335 21878 ft 447 kts 99°
2026-05-08 07:52 40.88262 -111.17267 22233 ft 449 kts 99°
2026-05-08 07:53 40.87771 -111.13175 22548 ft 452 kts 99°
2026-05-08 07:53 40.87286 -111.09051 22841 ft 455 kts 99°
2026-05-08 07:53 40.86793 -111.04908 23123 ft 458 kts 99°
2026-05-08 07:53 40.86288 -111.00746 23393 ft 460 kts 99°
2026-05-08 07:54 40.85779 -110.96554 23639 ft 463 kts 99°
2026-05-08 07:54 40.85272 -110.92350 23902 ft 465 kts 99°
2026-05-08 07:54 40.84760 -110.88115 24168 ft 468 kts 99°
2026-05-08 07:54 40.84241 -110.83868 24431 ft 470 kts 99°
2026-05-08 07:55 40.83717 -110.79590 24706 ft 472 kts 99°
2026-05-08 07:55 40.83191 -110.75302 24944 ft 474 kts 99°
2026-05-08 07:55 40.82663 -110.71000 25178 ft 476 kts 99°
2026-05-08 07:55 40.82128 -110.66669 25403 ft 478 kts 99°
2026-05-08 07:56 40.81591 -110.62331 25609 ft 481 kts 99°
2026-05-08 07:56 40.81048 -110.57964 25815 ft 483 kts 99°
2026-05-08 07:56 40.80503 -110.53587 26017 ft 485 kts 99°
2026-05-08 07:56 40.79953 -110.49188 26225 ft 487 kts 99°
2026-05-08 07:57 40.79400 -110.44778 26406 ft 488 kts 99°
2026-05-08 07:57 40.78843 -110.40346 26612 ft 490 kts 99°
2026-05-08 07:57 40.78282 -110.35903 26784 ft 492 kts 99°
2026-05-08 07:57 40.77717 -110.31440 26981 ft 494 kts 99°
2026-05-08 07:58 40.77148 -110.26961 27187 ft 495 kts 99°
2026-05-08 07:58 40.76576 -110.22475 27380 ft 497 kts 99°
2026-05-08 07:58 40.76001 -110.17976 27608 ft 498 kts 99°
2026-05-08 07:58 40.75430 -110.13526 27805 ft 499 kts 99°
2026-05-08 07:59 40.74849 -110.09006 27996 ft 501 kts 99°
2026-05-08 07:59 40.74288 -110.04470 28197 ft 502 kts 96°
2026-05-08 07:59 40.73962 -109.99881 28404 ft 503 kts 95°
2026-05-08 07:59 40.73673 -109.95279 28605 ft 504 kts 95°
2026-05-08 08:00 40.73374 -109.90662 28840 ft 505 kts 95°
2026-05-08 08:00 40.73057 -109.86058 29127 ft 504 kts 95°
2026-05-08 08:00 40.72739 -109.81464 29405 ft 504 kts 95°
2026-05-08 08:00 40.72430 -109.76868 29715 ft 503 kts 95°
2026-05-08 08:01 40.72121 -109.72282 30037 ft 502 kts 95°
2026-05-08 08:01 40.71806 -109.67707 30376 ft 500 kts 95°
2026-05-08 08:01 40.71487 -109.63151 30718 ft 499 kts 95°
2026-05-08 08:01 40.71272 -109.60068 30951 ft 499 kts 95°
2026-05-08 08:02 40.70956 -109.55526 31301 ft 497 kts 95°
2026-05-08 08:02 40.70639 -109.50988 31650 ft 496 kts 95°
2026-05-08 08:02 40.70318 -109.46463 32007 ft 495 kts 95°
2026-05-08 08:02 40.69997 -109.41956 32355 ft 494 kts 95°
2026-05-08 08:03 40.69679 -109.37514 32715 ft 493 kts 95°
2026-05-08 08:03 40.69358 -109.33028 33071 ft 491 kts 95°
2026-05-08 08:03 40.69033 -109.28539 33423 ft 490 kts 95°
2026-05-08 08:03 40.68708 -109.24072 33753 ft 490 kts 95°
2026-05-08 08:04 40.68382 -109.19609 34097 ft 489 kts 95°
2026-05-08 08:04 40.68056 -109.15155 34429 ft 488 kts 95°
2026-05-08 08:04 40.67728 -109.10712 34756 ft 487 kts 95°
2026-05-08 08:04 40.67399 -109.06283 35092 ft 486 kts 96°
2026-05-08 08:05 40.67076 -109.01850 35425 ft 485 kts 95°
2026-05-08 08:05 40.66803 -108.97418 35747 ft 484 kts 94°
2026-05-08 08:05 40.66550 -108.93003 36042 ft 483 kts 95°
2026-05-08 08:05 40.66270 -108.88650 36613 ft 472 kts 95°
2026-05-08 08:06 40.65978 -108.84380 37181 ft 465 kts 95°
2026-05-08 08:06 40.65700 -108.80164 37746 ft 458 kts 95°
2026-05-08 08:06 40.65438 -108.76023 38306 ft 450 kts 95°
2026-05-08 08:07 40.64893 -108.67770 38430 ft 460 kts 95°
2026-05-08 08:07 40.64327 -108.59295 38553 ft 469 kts 95°
2026-05-08 08:08 40.63748 -108.50676 38726 ft 476 kts 95°
2026-05-08 08:08 40.63450 -108.46321 38832 ft 479 kts 95°
2026-05-08 08:08 40.63151 -108.41941 38949 ft 481 kts 95°
2026-05-08 08:09 40.62548 -108.33188 38994 ft 477 kts 95°
2026-05-08 08:09 40.61943 -108.24509 38992 ft 476 kts 95°
2026-05-08 08:10 40.61332 -108.15840 38987 ft 475 kts 95°
2026-05-08 08:10 40.60717 -108.07199 38989 ft 474 kts 95°
2026-05-08 08:11 40.60095 -107.98567 38989 ft 474 kts 95°
2026-05-08 08:11 40.59467 -107.89929 38990 ft 475 kts 95°
2026-05-08 08:12 40.58832 -107.81287 38997 ft 475 kts 95°
2026-05-08 08:12 40.58189 -107.72628 38996 ft 475 kts 96°
2026-05-08 08:13 40.57541 -107.63982 38999 ft 475 kts 96°
2026-05-08 08:13 40.56895 -107.55329 38995 ft 475 kts 96°
2026-05-08 08:14 40.56238 -107.46688 38997 ft 475 kts 96°
2026-05-08 08:14 40.55578 -107.38053 38997 ft 475 kts 96°
2026-05-08 08:15 40.54914 -107.29467 39000 ft 475 kts 96°
2026-05-08 08:15 40.54239 -107.20809 39001 ft 476 kts 96°
2026-05-08 08:16 40.53557 -107.12157 38993 ft 476 kts 96°
2026-05-08 08:16 40.52868 -107.03497 38990 ft 477 kts 96°
2026-05-08 08:17 40.52178 -106.94916 38589 ft 468 kts 96°
2026-05-08 08:17 40.51834 -106.90660 37994 ft 468 kts 96°
2026-05-08 08:17 40.51488 -106.86404 37409 ft 468 kts 96°
2026-05-08 08:17 40.51140 -106.82144 36815 ft 468 kts 96°
2026-05-08 08:18 40.50792 -106.77897 36225 ft 468 kts 96°
2026-05-08 08:18 40.50442 -106.73652 35610 ft 468 kts 96°
2026-05-08 08:18 40.50090 -106.69395 34999 ft 468 kts 96°
2026-05-08 08:18 40.49737 -106.65156 34349 ft 468 kts 96°
2026-05-08 08:19 40.49382 -106.60900 33700 ft 467 kts 96°
2026-05-08 08:19 40.49026 -106.56664 33034 ft 467 kts 96°
2026-05-08 08:19 40.48670 -106.52439 32352 ft 467 kts 96°
2026-05-08 08:19 40.48304 -106.48233 31757 ft 468 kts 97°
2026-05-08 08:20 40.47916 -106.43993 31130 ft 467 kts 97°
2026-05-08 08:20 40.47532 -106.39778 30513 ft 464 kts 97°
2026-05-08 08:20 40.47158 -106.35579 29898 ft 461 kts 96°
2026-05-08 08:20 40.46786 -106.31408 29288 ft 458 kts 97°
2026-05-08 08:21 40.46409 -106.27272 28679 ft 455 kts 97°
2026-05-08 08:21 40.46032 -106.23162 28076 ft 452 kts 97°
2026-05-08 08:21 40.45675 -106.19259 27504 ft 449 kts 97°
2026-05-08 08:21 40.45305 -106.15211 27065 ft 442 kts 97°
2026-05-08 08:22 40.44951 -106.11244 26752 ft 435 kts 96°
2026-05-08 08:22 40.44618 -106.07311 26227 ft 432 kts 96°
2026-05-08 08:22 40.44284 -106.03405 25753 ft 428 kts 96°
2026-05-08 08:22 40.43940 -105.99533 25356 ft 426 kts 97°
2026-05-08 08:23 40.43596 -105.95680 24978 ft 424 kts 96°
2026-05-08 08:23 40.43256 -105.91845 24596 ft 422 kts 97°
2026-05-08 08:23 40.42734 -105.88072 24214 ft 420 kts 102°
2026-05-08 08:23 40.42138 -105.84323 23836 ft 418 kts 102°
2026-05-08 08:24 40.41551 -105.80595 23464 ft 415 kts 102°
2026-05-08 08:24 40.40981 -105.76965 23086 ft 414 kts 102°
2026-05-08 08:24 40.40387 -105.73210 22711 ft 411 kts 102°
2026-05-08 08:24 40.39804 -105.69546 22331 ft 409 kts 102°
2026-05-08 08:25 40.39226 -105.65909 21957 ft 403 kts 102°
2026-05-08 08:25 40.38666 -105.62390 21598 ft 396 kts 102°
2026-05-08 08:25 40.38105 -105.58876 21240 ft 390 kts 102°
2026-05-08 08:25 40.37550 -105.55409 20886 ft 386 kts 102°
2026-05-08 08:26 40.37001 -105.51984 20540 ft 383 kts 102°
2026-05-08 08:26 40.36455 -105.48582 20192 ft 378 kts 102°
2026-05-08 08:26 40.35918 -105.45243 19847 ft 372 kts 102°
2026-05-08 08:26 40.35384 -105.41935 19445 ft 369 kts 102°
2026-05-08 08:27 40.34849 -105.38668 19093 ft 364 kts 104°
2026-05-08 08:27 40.33898 -105.35645 18807 ft 357 kts 124°
2026-05-08 08:27 40.32456 -105.33043 18538 ft 350 kts 128°
2026-05-08 08:27 40.30955 -105.30562 18276 ft 344 kts 129°
2026-05-08 08:28 40.29478 -105.28131 18011 ft 339 kts 128°
2026-05-08 08:28 40.28041 -105.25690 17778 ft 337 kts 127°
2026-05-08 08:28 40.26621 -105.23263 17526 ft 335 kts 128°
2026-05-08 08:28 40.25196 -105.20860 17279 ft 333 kts 128°
2026-05-08 08:29 40.23774 -105.18474 17039 ft 331 kts 128°
2026-05-08 08:29 40.22365 -105.16103 16793 ft 330 kts 128°
2026-05-08 08:29 40.20961 -105.13735 16550 ft 328 kts 128°
2026-05-08 08:29 40.19562 -105.11379 16307 ft 327 kts 128°
2026-05-08 08:30 40.18166 -105.09036 16067 ft 326 kts 128°
2026-05-08 08:30 40.16776 -105.06701 15834 ft 324 kts 128°
2026-05-08 08:30 40.13957 -105.02145 15357 ft 321 kts 135°
2026-05-08 08:31 40.12368 -105.00108 15114 ft 320 kts 135°
2026-05-08 08:31 40.10791 -104.98063 14870 ft 319 kts 135°
2026-05-08 08:31 40.09215 -104.96023 14649 ft 318 kts 135°
2026-05-08 08:31 40.07644 -104.94001 14411 ft 317 kts 135°
2026-05-08 08:32 40.06073 -104.91983 14175 ft 316 kts 135°
2026-05-08 08:32 40.04507 -104.89967 13943 ft 315 kts 135°
2026-05-08 08:32 40.02949 -104.87963 13706 ft 314 kts 135°
2026-05-08 08:32 40.01415 -104.85992 13471 ft 313 kts 135°
2026-05-08 08:33 39.99866 -104.84002 13239 ft 312 kts 135°
2026-05-08 08:33 39.98306 -104.82042 13004 ft 310 kts 141°
2026-05-08 08:33 39.96421 -104.80725 12799 ft 308 kts 166°
2026-05-08 08:33 39.94319 -104.80451 12574 ft 302 kts 180°
2026-05-08 08:34 39.92234 -104.80502 12338 ft 297 kts 182°
2026-05-08 08:34 39.90181 -104.80599 12110 ft 293 kts 182°
2026-05-08 08:34 39.88159 -104.80661 11897 ft 289 kts 181°
2026-05-08 08:34 39.86162 -104.80702 11673 ft 285 kts 181°
2026-05-08 08:35 39.84197 -104.80749 11463 ft 281 kts 181°
2026-05-08 08:35 39.82252 -104.80803 11254 ft 277 kts 181°
2026-05-08 08:35 39.80329 -104.80856 11056 ft 274 kts 181°
2026-05-08 08:35 39.78448 -104.80802 10912 ft 267 kts 168°
2026-05-08 08:36 39.76665 -104.80522 10957 ft 250 kts 173°
2026-05-08 08:36 39.75085 -104.79699 10918 ft 236 kts 149°
2026-05-08 08:36 39.73762 -104.78653 10904 ft 209 kts 152°
2026-05-08 08:36 39.72472 -104.77908 10901 ft 202 kts 160°
2026-05-08 08:37 39.71148 -104.77314 10900 ft 200 kts 162°
2026-05-08 08:37 39.69829 -104.76727 10897 ft 200 kts 161°
2026-05-08 08:37 39.68515 -104.76120 10899 ft 200 kts 161°
2026-05-08 08:37 39.67207 -104.75511 10895 ft 200 kts 161°
2026-05-08 08:38 39.65897 -104.74903 10899 ft 200 kts 161°
2026-05-08 08:38 39.64588 -104.74297 10897 ft 200 kts 161°
2026-05-08 08:38 39.63444 -104.73337 10947 ft 197 kts 129°
2026-05-08 08:38 39.62524 -104.72047 11025 ft 199 kts 155°
2026-05-08 08:39 39.61240 -104.71828 10957 ft 185 kts 186°
2026-05-08 08:39 39.59967 -104.71913 10958 ft 176 kts 179°
2026-05-08 08:39 39.58935 -104.71333 10890 ft 162 kts 124°
2026-05-08 08:39 39.58799 -104.69972 10950 ft 156 kts 66°
2026-05-08 08:40 39.59595 -104.69033 10524 ft 158 kts 10°
2026-05-08 08:40 39.60666 -104.69055 10139 ft 154 kts
2026-05-08 08:40 39.61754 -104.69008 9935 ft 158 kts
2026-05-08 08:40 39.62847 -104.68992 9751 ft 157 kts 360°
2026-05-08 08:41 39.63941 -104.68980 9554 ft 157 kts 360°
2026-05-08 08:41 39.65031 -104.68967 9351 ft 156 kts 360°
2026-05-08 08:41 39.66116 -104.68955 9148 ft 156 kts 360°
2026-05-08 08:41 39.67189 -104.68942 8904 ft 151 kts 360°
2026-05-08 08:42 39.68244 -104.68927 8643 ft 151 kts 360°
2026-05-08 08:42 39.69298 -104.68914 8403 ft 152 kts 359°
2026-05-08 08:42 39.70320 -104.68902 8114 ft 146 kts 360°
2026-05-08 08:42 39.71318 -104.68888 7749 ft 141 kts 360°
2026-05-08 08:43 39.72300 -104.68875 7550 ft 141 kts 360°
2026-05-08 08:43 39.73282 -104.68862 7386 ft 143 kts 360°
2026-05-08 08:43 39.74293 -104.68856 7305 ft 148 kts
2026-05-08 08:43 39.75351 -104.68838 7161 ft 154 kts
2026-05-08 08:44 39.76409 -104.68823 6959 ft 150 kts
2026-05-08 08:44 39.77450 -104.68812 6772 ft 149 kts 360°
2026-05-08 08:44 39.78469 -104.68801 6573 ft 144 kts 359°
2026-05-08 08:44 39.79476 -104.68789 6421 ft 145 kts 360°
2026-05-08 08:45 39.80485 -104.68774 6250 ft 145 kts 360°
2026-05-08 08:45 39.81490 -104.68764 6084 ft 144 kts 359°
2026-05-08 08:45 39.82156 -104.68755 5992 ft 145 kts 360°
2026-05-08 08:45 39.82496 -104.68753 5948 ft 145 kts 359°